Regional Weather Roundup
Issued by NWS Newport/Morehead, NC

Current Version | Previous Version | Text Only | Print | Product List | Glossary Off
Versions: 1 2 3 4 5 6 7 8 9 10 11 12 13 14 15 16 17 18 19 20 21 22 23 24 25 26 27 28 29 30 31 32 33 34 35 36 37 38 39 40 41 42 43 44 45 46 47 48 49 50
000 ASUS42 KMHX 231525 RWRMHX WEATHER ROUNDUP FOR EASTERN NORTH CAROLINA NATIONAL WEATHER SERVICE NEWPORT/MOREHEAD CITY NC 1100 AM EDT THU MAR 23 2017 NOTE: "FAIR" INDICATES FEW OR NO CLOUDS BELOW 12,000 FEET WITH NO SIGNIFICANT WEATHER AND/OR OBSTRUCTIONS TO VISIBILITY NCZ015>017-031-032-045>047-102-103-231600- NORTH COAST CITY SKY/WX TMP DP RH WIND PRES REMARKS EDENTON NOT AVBL ELIZABETH CITY SUNNY 43 21 41 NE15G21 30.64R KITTY HAWK NOT AVBL MANTEO SUNNY 41 23 48 NE15G24 30.63S $$ NCZ045>047-081-094-103-104-231600- CENTRAL COAST CITY SKY/WX TMP DP RH WIND PRES REMARKS FRISCO SUNNY 45 23 42 NE14G25 30.61R $$ NCZ095-097-098-100-101-231600- SOUTHERN COAST CITY SKY/WX TMP DP RH WIND PRES REMARKS BEAUFORT SUNNY 47 27 45 NE14G25 30.60R CEDAR ISLAND NOT AVBL JACKSONVILLE SUNNY 48 26 42 NE14 30.59R PINEY ISLAND NOT AVBL WILMINGTON SUNNY 48 27 44 E14 30.59R $$ NCZ011>013-027>030-043-044-078>080-089-090>093-098-231600- COASTAL PLAIN CITY SKY/WX TMP DP RH WIND PRES REMARKS AHOSKIE NOT AVBL CLINTON SUNNY 47 27 45 NE9 30.61R ELIZABETHTOWN SUNNY 47 27 45 NE5 30.60R GOLDSBORO SUNNY 45 20 37 NE8 30.60R GREENVILLE SUNNY 45 19 36 NE12G17 30.61R HAVELOCK SUNNY 47 27 45 E17 30.61R KENANSVILLE SUNNY 46 19 34 E6 30.61R KINSTON SUNNY 45 45 100 NE12G18 30.62R NEW BERN SUNNY 46 25 43 NE12 30.62R RICHLANDS SUNNY 46 27 47 NE12G18 30.60R ROCKY MOUNT SUNNY 44 19 36 N12 30.63R WASHINGTON SUNNY 44 22 41 NE8G16 30.62S WHITEVILLE SUNNY 49 28 44 NE10 30.57S $$ AMZ130-135-150-152-154-156-158-170-250-252-270-ANZ085-086-088-633-658-670-231600- MARINE OBSERVATIONS STATION/POSITION TIME TEMP WIND PRES WAVE SWELL AIR SEA DIR/SP/G HT/PER HT/PER (UTC) (F) (DEG/KT/KT) (MB) (FT/S) (FT/S) CHESAPEAKE LIGHT NOT AVBL 64 E VA BEACH 1450 38 50 20/ 17/ 21 1036.5 7/ 7 5/ 7 DUCK 1500 37 47 20/ 19/ 24 1036.6 2 E DUCK 1500 47 N/A 6/ 8 2/11 OREGON INLET 1500 39 48 20/ 16/ 20 1036.8 13E OREGON INLT NOT AVBL HATTERAS CG 1500 41 51 20/ 20/ 25 1036.1 DIAMOND BUOY 1450 45 72 30/ 19/ 27 1035.7 9/11 7/11 CAPE LOOKOUT 1500 44 30/ 20/ 23 1035.7 BEAUFORT LAB 1500 44 52 30/ 14/ 20 1035.2 30 SE NEW RVR IN 1508 48 50/ 21/ 27 1035.0 30 SE NEW RVR IN 1443 64 N/A 7/ 6 2/11 27 SE WRIGHTSVLE 1508 49 62 80/ 19/ 29 1033.8 5 SE WRIGHTSVLE 1508 47 57 70/ 16/ 27 1035.6 225 S CAPE HAT 1450 61 71 30/ 21/ 25 1029.3 9/10 8/10 41 SE CHARLESTON 1450 61 70 50/ 19/ 23 1030.8 8/ 7 3/ 9 $$

USA.gov is the U.S. government's official web portal to all federal, state and local government web resources and services.